Simultaneous Nadir Overpasses (SNOs) Predictions

Prediction of SNOs between NOAA-19 and METOP-C Satellite Orbit:

Table of predicted SNOs for the next 14.0 days since TLE Epoch: 6/1/2024
Index Date (NOAA-19) Time (NOAA-19) Lat,Lon (NOAA-19) SZA (NOAA-19 ) Date (METOP-C) Time (METOP-C) Lat,Lon (METOP-C) SZA (METOP-C ) Distance(km) Time Diff (sec)
1 06/02/2024 03:08:52 -79.72, -27.73 121.91 06/02/2024 03:09:58 -79.72, -27.73 121.89 0.05 66
2 06/02/2024 03:59:45 79.74, 139.84 58.14 06/02/2024 04:00:38 79.74, 139.85 58.15 0.27 53
3 06/02/2024 04:50:46 -79.83, -52.04 121.74 06/02/2024 04:51:16 -79.83, -52.04 121.73 0.23 30
4 06/02/2024 05:41:39 79.85, 115.53 58.31 06/02/2024 05:41:56 79.86, 115.55 58.32 0.48 17
5 06/02/2024 06:32:41 -79.91, -76.64 121.61 06/02/2024 06:32:35 -79.91, -76.61 121.61 0.48 6
6 06/02/2024 07:23:34 79.93, 90.95 58.44 06/02/2024 07:23:15 79.93, 90.98 58.44 0.73 19
7 06/02/2024 08:14:35 -80.01,-100.91 121.44 06/02/2024 08:13:53 -80.01,-100.88 121.44 0.74 42
8 06/02/2024 09:05:29 80.01, 66.38 58.57 06/02/2024 09:04:34 80.01, 66.43 58.55 0.96 55
9 06/13/2024 22:57:17 -79.45, 32.91 123.37 06/13/2024 22:58:32 -79.45, 32.95 123.35 0.95 75
10 06/13/2024 23:48:12 79.48,-159.55 56.68 06/13/2024 23:49:11 79.49,-159.41 56.71 3.06 59
11 06/14/2024 00:39:10 -79.60, 8.81 123.15 06/14/2024 00:39:49 -79.60, 8.87 123.13 1.30 39
12 06/14/2024 01:30:03 79.68, 176.94 56.99 06/14/2024 01:30:27 79.67, 176.80 56.98 3.11 24
13 06/14/2024 02:21:04 -79.71, -15.54 122.97 06/14/2024 02:21:07 -79.72, -15.47 122.96 1.64 3
14 06/14/2024 03:11:57 79.79, 152.62 57.17 06/14/2024 03:11:45 79.79, 152.49 57.15 2.77 12
15 06/14/2024 04:02:58 -79.82, -39.86 122.80 06/14/2024 04:02:25 -79.83, -39.78 122.79 1.98 33
16 06/14/2024 04:53:52 79.87, 128.01 57.30 06/14/2024 04:53:04 79.87, 127.90 57.27 2.45 48



Historial Predications of SNOs between NOAA-19 and METOP-C
